"Pseudo-MPEC" for P11Osd5

Created 2023 Dec 2 0:22:05 UT using Find_Orb

Click here for an explanation of pseudo-MPECs

 
 Astrometry: 
     P11Osd5* C2023 11 19_.;IWMF2?1bBMFeI)FwI$DLOAstrometryS#6M2u[NDredacted;F51
     P11Osd5  C2023 11 19l!E$t0@^@'a$'_$(b\4f37`JQvROhclickStGN_gDwb^f-CDi_[oF51
     P11Osd5  C2023 11 19sG]e#C5TsA)btXc=*!nl'RhereX4P#$5^forM/_dtexplanationF51

Station data:
(F51) Pan-STARRS 1, Haleakala  (N20.707234 W156.255910)  US/Hawaii.
   Observers J. Bulger, T. Lowe, A. Schultz, M. Willman. Measurers K.
   Chambers, S. Chastel, T. de Boer, L. Denneau, J. Fairlamb, H. Flewelling,
   M. Huber, C.-C. Lin, E. Magnier, Y. Ramanjooloo, R. Wainscoat, R. Weryk.
   1.8-m Ritchey-Chrétien + CCD.

Orbital elements:  P11Osd5
   Perihelion 2024 Feb 23.99653 +/- 56.4 TT = 23:55:00 (JD 2460364.49653)
Epoch 2023 Nov 20.0 TT = JDT 2460268.5   Earth MOID: 0.1134      AutoNEOCP
M 332.87837201 +/- 21               (J2000 ecliptic)
n   0.28252716 +/- 0.266            Peri.  304.87180 +/- 100
a   2.30018397 +/- 1.44             Node   203.05118 +/- 57
e   0.5495660 +/- 0.246             Incl.    9.18314 +/- 8
P   3.49                   H 21.30  G  0.15   U 11.9  SR
q 1.03608098 +/- 0.554    Q 3.56428696 +/- 62.5
From 3 observations 2023 Nov. 19 (34.1 min); mean residual 0".05
Residuals in arcseconds: 
231119 F51  .03+  .04+    231119 F51  .06-  .08-    231119 F51  .03+  .04+    

Ephemerides (geocentric):
Date (UTC) HH   RA             Dec           delta  r     elong  mag " sig PA
---- --------  ------------   ------------  ------ ------ -----  --- --------
2023 12 02 00  04 55 52.767   +01 21 02.76  .46796 1.4319 158.6 21.2  51d  91
2023 12 02 01  04 55 50.870   +01 19 54.62  .46767 1.4316 158.6 21.2  51d  91
2023 12 02 02  04 55 48.969   +01 18 46.44  .46738 1.4313 158.6 21.2  51d  91
2023 12 02 03  04 55 47.065   +01 17 38.24  .46710 1.4310 158.6 21.2  51d  91
2023 12 02 04  04 55 45.157   +01 16 30.01  .46681 1.4307 158.5 21.2  52d  91
2023 12 02 05  04 55 43.246   +01 15 21.75  .46652 1.4304 158.5 21.2  52d  91
2023 12 02 06  04 55 41.331   +01 14 13.46  .46624 1.4301 158.5 21.2  52d  91
2023 12 02 07  04 55 39.413   +01 13 05.14  .46595 1.4298 158.5 21.2  52d  91
2023 12 02 08  04 55 37.492   +01 11 56.79  .46567 1.4295 158.5 21.2  52d  91
2023 12 02 09  04 55 35.567   +01 10 48.42  .46538 1.4292 158.5 21.2  52d  91
2023 12 02 10  04 55 33.639   +01 09 40.01  .46510 1.4289 158.5 21.2  52d  91
2023 12 02 11  04 55 31.707   +01 08 31.58  .46481 1.4286 158.5 21.2  52d  91
2023 12 02 12  04 55 29.772   +01 07 23.12  .46453 1.4283 158.5 21.2  52d  91
2023 12 02 13  04 55 27.834   +01 06 14.63  .46425 1.4280 158.4 21.2  52d  91
2023 12 02 14  04 55 25.892   +01 05 06.11  .46396 1.4277 158.4 21.2  52d  91
2023 12 02 15  04 55 23.946   +01 03 57.57  .46368 1.4273 158.4 21.2  53d  91
2023 12 02 16  04 55 21.998   +01 02 48.99  .46340 1.4270 158.4 21.2  53d  91
2023 12 02 17  04 55 20.046   +01 01 40.39  .46312 1.4267 158.4 21.2  53d  91
2023 12 02 18  04 55 18.091   +01 00 31.76  .46283 1.4264 158.4 21.2  53d  91
2023 12 02 19  04 55 16.132   +00 59 23.10  .46255 1.4261 158.4 21.2  53d  91
2023 12 02 20  04 55 14.170   +00 58 14.42  .46227 1.4258 158.4 21.2  53d  91
2023 12 02 21  04 55 12.204   +00 57 05.71  .46199 1.4255 158.4 21.2  53d  91
2023 12 02 22  04 55 10.236   +00 55 56.97  .46171 1.4252 158.3 21.2  53d  91
2023 12 02 23  04 55 08.264   +00 54 48.20  .46143 1.4249 158.3 21.2  53d  91
2023 12 03 00  04 55 06.288   +00 53 39.41  .46115 1.4246 158.3 21.2  53d  91
2023 12 03 01  04 55 04.309   +00 52 30.58  .46087 1.4243 158.3 21.2  53d  91
2023 12 03 02  04 55 02.327   +00 51 21.74  .46059 1.4240 158.3 21.2  53d  91
2023 12 03 03  04 55 00.342   +00 50 12.86  .46031 1.4237 158.3 21.2  53d  91
2023 12 03 04  04 54 58.353   +00 49 03.96  .46003 1.4234 158.3 21.2  53d  91
2023 12 03 05  04 54 56.361   +00 47 55.03  .45975 1.4231 158.3 21.2  53d  91
2023 12 03 06  04 54 54.366   +00 46 46.07  .45948 1.4228 158.2 21.2  53d  91
2023 12 03 07  04 54 52.367   +00 45 37.09  .45920 1.4225 158.2 21.2  53d  91
2023 12 03 08  04 54 50.365   +00 44 28.08  .45892 1.4222 158.2 21.2  53d  91
2023 12 03 09  04 54 48.360   +00 43 19.05  .45864 1.4219 158.2 21.2  53d  91
2023 12 03 10  04 54 46.352   +00 42 09.99  .45837 1.4216 158.2 21.2  54d  91
2023 12 03 11  04 54 44.340   +00 41 00.90  .45809 1.4213 158.2 21.2  54d  91
2023 12 03 12  04 54 42.325   +00 39 51.78  .45781 1.4210 158.2 21.2  54d  91
2023 12 03 13  04 54 40.307   +00 38 42.64  .45754 1.4207 158.1 21.2  54d  91
2023 12 03 14  04 54 38.285   +00 37 33.48  .45726 1.4204 158.1 21.2  54d  91
2023 12 03 15  04 54 36.260   +00 36 24.29  .45699 1.4201 158.1 21.2  54d  91
2023 12 03 16  04 54 34.232   +00 35 15.07  .45671 1.4198 158.1 21.2  54d  91
2023 12 03 17  04 54 32.201   +00 34 05.83  .45644 1.4195 158.1 21.2  54d  91
2023 12 03 18  04 54 30.166   +00 32 56.56  .45616 1.4192 158.1 21.2  54d  91
2023 12 03 19  04 54 28.128   +00 31 47.27  .45589 1.4189 158.1 21.2  54d  91
2023 12 03 20  04 54 26.087   +00 30 37.95  .45561 1.4186 158.0 21.2  54d  91
2023 12 03 21  04 54 24.043   +00 29 28.60  .45534 1.4183 158.0 21.2  54d  91
2023 12 03 22  04 54 21.996   +00 28 19.23  .45507 1.4180 158.0 21.2  54d  91
2023 12 03 23  04 54 19.945   +00 27 09.84  .45479 1.4177 158.0 21.2  54d  91